Leesburg, VA

12:47 PM EST on December 09, 2019 (GMT -0500)
Leesburg Executive

Weather History for KJYO - April, 2019

Change the Weather History Date:

Thursday, April 4, 2019

  Actual Average (KIAD) Record (KIAD)
Temperature  
Mean Temperature 54 °F -  
Max Temperature 66 °F 61 °F 85 °F (2011)
Min Temperature 42 °F 39 °F 22 °F (1965)
Degree Days  
Heating Degree Days 11    
Growing Degree Days 4 (Base 50)    
Moisture  
Dew Point 33 °F    
Average Humidity 43    
Maximum Humidity 70    
Minimum Humidity 30    
Precipitation  
Precipitation 0.00 in - - ()
Sea Level Pressure  
Sea Level Pressure 30.38 in    
Wind  
Wind Speed 3 mph (North)    
Max Wind Speed 9 mph    
Max Gust Speed -    
Visibility 10 miles    
Events      
Averages and records for this station are not official NWS values.
T = Trace of Precipitation, MM = Missing Value Source: NWS Daily Summary

Daily Weather History Graph

Daily Weather History Graph

Search for Another Location

Airport or City:

Astronomy

Apr. 04, 2019 Rise Set
Actual Time 6:50 AM EDT 7:36 PM EDT
Civil Twilight 6:23 AM EDT 8:03 PM EDT
Nautical Twilight 5:51 AM EDT 8:35 PM EDT
Astronomical Twilight 5:18 AM EDT 9:08 PM EDT
Moon 6:52 AM EDT (4/4) 7:02 PM EDT (4/4)
Length of Visible Light 13h 40m
Length of Day
12h 46m
Waning Crescent, 0% of the Moon is Illuminated
Apr 4
Waning Crescent
Apr 5
New
Apr 12
First Quarter
Apr 19
Full
Apr 26
Last Quarter

Hourly Weather History & Observations

Time (EDT) Temp. Windchill Dew Point Humidity Pressure Visibility Wind Dir Wind Speed Gust Speed Precip Events Conditions
12:15 AM 51.8 °F - 30.2 °F 44% 30.30 in 10.0 mi NW 4.6 mph - N/A   Clear
12:35 AM 53.6 °F - 30.2 °F 41% 30.31 in 10.0 mi NNW 5.8 mph - N/A   Clear
12:55 AM 50.0 °F - 30.2 °F 47% 30.31 in 10.0 mi South 4.6 mph - N/A   Clear
1:15 AM 51.8 °F - 30.2 °F 44% 30.31 in 10.0 mi Calm Calm - N/A   Clear
1:35 AM 50.0 °F - 28.4 °F 43% 30.31 in 10.0 mi East 3.5 mph - N/A   Clear
1:55 AM 46.4 °F - 30.2 °F 53% 30.31 in 10.0 mi Calm Calm - N/A   Clear
2:15 AM 48.2 °F - 28.4 °F 46% 30.32 in 10.0 mi Calm Calm - N/A   Clear
2:35 AM 50.0 °F - 28.4 °F 43% 30.33 in 10.0 mi South 4.6 mph - N/A   Clear
2:55 AM 46.4 °F 45.2 °F 30.2 °F 53% 30.33 in 10.0 mi South 3.5 mph - N/A   Clear
3:15 AM 44.6 °F 43.1 °F 32.0 °F 61% 30.35 in 10.0 mi West 3.5 mph - N/A   Clear
3:35 AM 44.6 °F 41.4 °F 32.0 °F 61% 30.35 in 10.0 mi WNW 5.8 mph - N/A   Clear
3:55 AM 46.4 °F - 32.0 °F 57% 30.36 in 10.0 mi Calm Calm - N/A   Clear
4:15 AM 46.4 °F 44.3 °F 32.0 °F 57% 30.36 in 10.0 mi WNW 4.6 mph - N/A   Clear
4:35 AM 44.6 °F 42.2 °F 32.0 °F 61% 30.37 in 10.0 mi NW 4.6 mph - N/A   Clear
4:55 AM 44.6 °F 42.2 °F 32.0 °F 61% 30.37 in 10.0 mi NNW 4.6 mph - N/A   Scattered Clouds
5:15 AM 44.6 °F 43.1 °F 32.0 °F 61% 30.37 in 10.0 mi NW 3.5 mph - N/A   Scattered Clouds
5:35 AM 42.8 °F - 32.0 °F 66% 30.38 in 10.0 mi Calm Calm - N/A   Scattered Clouds
5:55 AM 44.6 °F - 32.0 °F 61% 30.39 in 10.0 mi Calm Calm - N/A   Clear
6:15 AM 44.6 °F - 32.0 °F 61% 30.40 in 10.0 mi Calm Calm - N/A   Clear
6:35 AM 42.8 °F - 32.0 °F 66% 30.41 in 10.0 mi Calm Calm - N/A   Clear
6:55 AM 42.8 °F 41.1 °F 33.8 °F 70% 30.42 in 10.0 mi NW 3.5 mph - N/A   Scattered Clouds
7:15 AM 42.8 °F - 33.8 °F 70% 30.42 in 10.0 mi Calm Calm - N/A   Scattered Clouds
7:35 AM 44.6 °F - 33.8 °F 66% 30.43 in 10.0 mi Calm Calm - N/A   Mostly Cloudy
7:55 AM 46.4 °F - 32.0 °F 57% 30.43 in 10.0 mi Calm Calm - N/A   Mostly Cloudy
8:15 AM 46.4 °F - 33.8 °F 62% 30.44 in 10.0 mi Calm Calm - N/A   Scattered Clouds
8:55 AM 53.6 °F - 32.0 °F 44% 30.44 in 10.0 mi Calm Calm - N/A   Clear
9:15 AM 55.4 °F - 32.0 °F 41% 30.44 in 10.0 mi Calm Calm - N/A   Scattered Clouds
9:35 AM 55.4 °F - 32.0 °F 41% 30.44 in 10.0 mi Calm Calm - N/A   Scattered Clouds
9:55 AM 59.0 °F - 30.2 °F 34% 30.44 in 10.0 mi Calm Calm - N/A   Mostly Cloudy
10:15 AM 59.0 °F - 32.0 °F 36% 30.44 in 10.0 mi Calm Calm - N/A   Overcast
10:35 AM 60.8 °F - 32.0 °F 34% 30.45 in 10.0 mi Calm Calm - N/A   Scattered Clouds
10:55 AM 60.8 °F - 32.0 °F 34% 30.45 in 10.0 mi South 4.6 mph - N/A   Clear
11:15 AM 60.8 °F - 32.0 °F 34% 30.44 in 10.0 mi Calm Calm - N/A   Scattered Clouds
11:35 AM 62.6 °F - 32.0 °F 32% 30.44 in 10.0 mi NW 5.8 mph - N/A   Scattered Clouds
11:55 AM 62.6 °F - 32.0 °F 32% 30.43 in 10.0 mi NW 4.6 mph - N/A   Clear
12:15 PM 64.4 °F - 32.0 °F 30% 30.42 in 10.0 mi NNE 4.6 mph - N/A   Scattered Clouds
12:35 PM 64.4 °F - 32.0 °F 30% 30.42 in 10.0 mi NW 5.8 mph - N/A   Scattered Clouds
12:55 PM 64.4 °F - 32.0 °F 30% 30.41 in 10.0 mi North 5.8 mph - N/A   Mostly Cloudy
1:15 PM 64.4 °F - 33.8 °F 32% 30.41 in 10.0 mi NW 9.2 mph - N/A   Overcast
1:35 PM 64.4 °F - 33.8 °F 32% 30.40 in 10.0 mi NW 9.2 mph - N/A   Overcast
1:55 PM 64.4 °F - 32.0 °F 30% 30.39 in 10.0 mi NW 9.2 mph - N/A   Overcast
2:15 PM 64.4 °F - 32.0 °F 30% 30.39 in 10.0 mi NW 6.9 mph - N/A   Overcast
2:35 PM 64.4 °F - 32.0 °F 30% 30.38 in 10.0 mi North 4.6 mph - N/A   Overcast
2:55 PM 64.4 °F - 32.0 °F 30% 30.38 in 10.0 mi WSW 5.8 mph - N/A   Overcast
3:15 PM 64.4 °F - 32.0 °F 30% 30.37 in 10.0 mi NW 4.6 mph - N/A   Overcast
3:35 PM 64.4 °F - 32.0 °F 30% 30.37 in 10.0 mi Calm Calm - N/A   Overcast
3:55 PM 64.4 °F - 33.8 °F 32% 30.36 in 10.0 mi Calm Calm - N/A   Overcast
4:15 PM 64.4 °F - 33.8 °F 32% 30.36 in 10.0 mi NNW 4.6 mph - N/A   Overcast
4:35 PM 64.4 °F - 32.0 °F 30% 30.36 in 10.0 mi Calm Calm - N/A   Overcast
4:55 PM 64.4 °F - 33.8 °F 32% 30.35 in 10.0 mi NE 5.8 mph - N/A   Overcast
5:15 PM 66.2 °F - 33.8 °F 30% 30.34 in 10.0 mi NE 8.1 mph - N/A   Overcast
5:35 PM 64.4 °F - 33.8 °F 32% 30.34 in 10.0 mi Calm Calm - N/A   Overcast
5:55 PM 64.4 °F - 33.8 °F 32% 30.35 in 10.0 mi NE 5.8 mph - N/A   Mostly Cloudy
6:15 PM 64.4 °F - 33.8 °F 32% 30.35 in 10.0 mi NNE 4.6 mph - N/A   Scattered Clouds
6:35 PM 64.4 °F - 33.8 °F 32% 30.35 in 10.0 mi NE 5.8 mph - N/A   Scattered Clouds
6:55 PM 62.6 °F - 33.8 °F 34% 30.35 in 10.0 mi NNE 4.6 mph - N/A   Clear
7:15 PM 62.6 °F - 33.8 °F 34% 30.35 in 10.0 mi NNE 4.6 mph - N/A   Clear
7:35 PM 62.6 °F - 33.8 °F 34% 30.36 in 10.0 mi NE 4.6 mph - N/A   Clear
7:55 PM 60.8 °F - 33.8 °F 36% 30.36 in 10.0 mi NE 4.6 mph - N/A   Clear
8:15 PM 60.8 °F - 33.8 °F 36% 30.36 in 10.0 mi Calm Calm - N/A   Clear
8:35 PM 59.0 °F - 33.8 °F 39% 30.36 in 10.0 mi ENE 4.6 mph - N/A   Scattered Clouds
8:55 PM 59.0 °F - 33.8 °F 39% 30.36 in 10.0 mi ENE 4.6 mph - N/A   Mostly Cloudy
9:15 PM 59.0 °F - 33.8 °F 39% 30.36 in 10.0 mi NE 4.6 mph - N/A   Overcast
9:35 PM 59.0 °F - 33.8 °F 39% 30.36 in 10.0 mi NE 3.5 mph - N/A   Overcast
9:55 PM 57.2 °F - 33.8 °F 41% 30.37 in 10.0 mi Calm Calm - N/A   Mostly Cloudy
10:15 PM 55.4 °F - 33.8 °F 44% 30.36 in 10.0 mi NE 4.6 mph - N/A   Scattered Clouds
10:35 PM 55.4 °F - 35.6 °F 47% 30.37 in 10.0 mi NE 4.6 mph - N/A   Scattered Clouds
10:55 PM 55.4 °F - 35.6 °F 47% 30.36 in 10.0 mi NE 4.6 mph - N/A   Mostly Cloudy
11:15 PM 55.4 °F - 35.6 °F 47% 30.36 in 10.0 mi NE 3.5 mph - N/A   Scattered Clouds
11:35 PM 55.4 °F - 35.6 °F 47% 30.36 in 10.0 mi ENE 3.5 mph - N/A   Clear
11:55 PM 51.8 °F - 35.6 °F 54% 30.36 in 10.0 mi East 4.6 mph - N/A   Clear